Regional Weather Roundup
Issued by NWS

Home | Current Version | Previous Version | Text Only | Print | Product List | Glossary On
Versions: 1 2 3 4 5 6 7 8 9 10 11 12 13 14 15 16 17 18 19 20 21 22 23 24 25 26 27 28 29 30 31 32 33 34 35 36 37 38 39 40 41 42 43 44 45 46 47 48 49 50
000
ASUS43 KDTX 241601
RWRMI
MICHIGAN HOURLY REGIONAL WEATHER ROUNDUP
NATIONAL WEATHER SERVICE DETROIT/PONTIAC MI
1200 PM EDT SUN JUL 24 2016

NOTE: "FAIR" INDICATES FEW OR NO CLOUDS BELOW 12,000 FEET WITH NO
SIGNIFICANT WEATHER AND/OR OBSTRUCTION TO VISIBILITY.

MIZ047>049-052>055-059>063-066>070-074>076-081>083-241700-
SOUTHEAST LOWER MICHIGAN

CITY           SKY/WX    TMP DP  RH WIND       PRES   REMARKS
ADRIAN         LGT RAIN  72  71  97 W10       30.01R
ALMA           CLOUDY    73  72  98 SW12G21   29.95R
ANN ARBOR      RAIN      74  73  97 S6        29.98R FOG
BAD AXE        CLOUDY    74  66  77 S8        29.93S
CARO           LGT RAIN  72  70  93 CALM      29.94R
DETROIT CITY   CLOUDY    76  73  91 CALM      29.95F
DETROIT        LGT RAIN  78  72  81 SW10      29.98R
FLINT          LGT RAIN  75  71  87 S6        29.95F
GROSSE ILE     CLOUDY    81  73  76 W9        29.96R
HOWELL         LGT RAIN  72  71  98 SW7       29.97S

CITY           SKY/WX    TMP DP  RH WIND       PRES   REMARKS
JACKSON        LGT RAIN  71  70  96 SW15      30.00S
LAMBERTVILLE   CLOUDY    80  70  73 W6        30.00R
LANSING        RAIN      72  69  90 SW18      29.97R FOG
LAPEER         RAIN      71  70  96 S6        29.95F
MASON          LGT RAIN  70  68  94 SW7       29.97S
MONROE         LGT RAIN  78  74  87 W10G17    29.98R
MT. CLEMENS    PTSUNNY   74  72  91 S5        29.93F
PONTIAC        LGT RAIN  72  70  93 CALM      29.96S FOG
PORT HOPE        N/A     76  64  66 VRB3      29.91F
PORT HURON     LGT RAIN  72  70  94 SE5       29.95F
TRI CITIES     CLOUDY    73  72  96 SW8       29.94S
MIDLAND        CLOUDY    72  71  96 SW5       29.93R
TROY           RAIN      76  73  90 SW3       29.98S
SAGINAW HB     CLOUDY    73  70  88 NW9       29.93R
$$
MIZ043>046-050>051-056>058-064>065-071>073-077>080-241700-
SOUTHWEST LOWER MICHIGAN

CITY           SKY/WX    TMP DP  RH WIND       PRES   REMARKS
BATTLE CREEK   HVY RAIN  67  67 100 W9        30.01S FOG
BENTON HARBOR  CLOUDY    80  72  76 E7        29.96R
BIG RAPIDS     CLOUDY    72  72 100 SE5       29.91S
COLDWATER      CLOUDY    74  69  86 CALM      30.02F
FREMONT        PTSUNNY   73  73 100 S6        29.91S
HOLLAND        LGT RAIN  71  69  93 SE7       29.94F
GRAND RAPIDS   CLOUDY    70  68  94 SE3       29.96S THUNDER
IONIA          LGT RAIN  69  67  94 SW10      29.97R
KALAMAZOO      LGT RAIN  71  68  90 CALM      30.01S FOG
LUDINGTON      RAIN      70  70  99 S12G21    29.85F
MOUNT PLEASANT CLOUDY    73  72  95 S8        29.92R
MUSKEGON       CLOUDY    73  70  90 S12       29.91F
$$
MIZ016>042-241700-
NORTHERN LOWER MICHIGAN

CITY           SKY/WX    TMP DP  RH WIND       PRES   REMARKS
ALPENA         MOSUNNY   81  66  60 S14G23    29.88F
BEAVER ISLAND  CLOUDY    74  70  86 SW8G20    29.82R
BELLAIRE       CLOUDY    79  70  73 S8        29.84F
CADILLAC       CLOUDY    75  69  80 SW8       29.90R
CHARLEVOIX     PTSUNNY   80  70  70 S10G17    29.85R
FRANKFORT      RAIN      74  69  83 SE5       29.84S
GAYLORD        PTSUNNY   82  68  62 S12G21    29.85F
GRAYLING       CLOUDY    78  71  78 S6        29.89F
HARBOR SPRINGS MOSUNNY   82  71  70 SW8       29.81S
HOUGHTON LAKE  CLOUDY    77  70  79 S9        29.91S
MANISTEE       TSTM      72  70  93 VRB6      29.84S
OSCODA         CLOUDY    76  65  70 S9        29.89F
PELLSTON       MOSUNNY   81  70  69 S7G17     29.81F
ROGERS CITY    SUNNY     82  67  61 S13G18    29.85F
TRAVERSE CITY  CLOUDY    79  71  76 SW6       29.83S
$$
MIZ007>008-015-241700-
EASTERN UPPER MICHIGAN

CITY           SKY/WX    TMP DP  RH WIND       PRES   REMARKS
KINROSS        CLOUDY    71  67  87 SE8       29.84R
MACKINAC ISLAN CLOUDY    75  67  75 S3        29.83R
NEWBERRY       CLOUDY    68  67  97 S6        29.82S FOG
S. S. MARIE    CLOUDY    69  67  93 SE7       29.84R
MUNISING         N/A     75  72  90 SW7       29.77R
$$
MIZ004>006-011>014-085-241700-
CENTRAL UPPER MICHIGAN

CITY           SKY/WX    TMP DP  RH WIND       PRES   REMARKS
MANISTIQUE     CLOUDY    69  68  97 SW10      29.81R
ESCANABA       CLOUDY    75  72  88 S8        29.78S
SAWYER-GWINN   PTSUNNY   73  70  88 SW12      29.79F
$$
MIZ001>003-009>011-084-241700-
WESTERN UPPER MICHIGAN

CITY           SKY/WX    TMP DP  RH WIND       PRES   REMARKS
IRON MOUNTAIN  CLOUDY    78  69  73 S9        29.79F
HOUGHTON       CLOUDY    74  66  76 W16       29.74S
COPPER HARBOR    N/A     73  68  84 SW7       29.71S
IRONWOOD       PTSUNNY   75  70  83 W12       29.76R
$$

ABBREVIATIONS USED IN REMARKS
   TC - TEMPERATURE IN CELSIUS
  WCI - WIND CHILL INDEX
   HX - HEAT INDEX
  VSB - VISIBILITY




USA.gov is the U.S. government's official web portal to all federal, state and local government web resources and services.